TOURFACTS.DK  
Stats and Facts from Tour de France.

Tour de France 2017 starts in 5 days
  Riders   Stages   Teams   Summits   Yearly  


 
Search by year

 After:  2016 - Stage 21:
  14626 starters.
  5086 different riders.
  634 teams.
  2211 stages.
  454 restdays.
  436049.60 km.
  5622 abandonnees.


Top 3
Christopher Froome89:04:48
Romain Bardet89:08:53
Nairo Quintana89:09:09
Rafal Majka209 pt.
Thomas De Gendt130 pt.
Jarlinson Pantano ..121 pt.
Peter Sagan470 pt.
Marcel Kittel228 pt.
Michael Matthews199 pt.
Adam Yates89:09:30
Louis Meintjes89:11:46
Emanuel Buchmann89:52:28
Facts from Tour de France 1938
  |   Stages.  |   Stage winners.  |   Days in yellow  |   Average speed.  |   Route.  |   Teams.  |   All riders.  |   Rookies.  |   Withdrawls.  |  

  |   GC.  |   Polka  |   Green  |   White  |   Summits. (In tour)  |   Summits. (Points)  |   Miscellaneous.  |  

Stage 8 on 13 - 07 - 1938
         Owning:    Félicien Vervaecke    
Pick a stage:  1 2 3 4a 4b 4c 5 6a 6b 7 8 9 10a 10b 10c 11 12 13 14 15 16 17a 17b 18 19 20a 20b 20c 21
  PauLuchon | Dist: 193.00 km.
Cat: Col de l'AubisqueITAGino Bartali10 points 
Cat: Col du TourmaletITAGino Bartali10 points 
Cat: Col d'AspinITAGino Bartali10 points 
Cat: Col de PeyresourdeBELFélicien Vervaecke10 points 

Average speed for all riders in stage:  25,170 km./hr.
    Place:Name:Team:Time:Km/h:
BELFélicien VervaeckeBELBelgium07:15:19  +  00:00:00=26,601 
BELEdward VissersBELBelgium07:15:19  +  00:00:00=26,601 
ITAGino BartaliITAItaly07:16:14  +  00:00:55=26,545 
4 FRAJean-Marie GoasmatFRAFrance07:19:31  +  00:04:12=26,347 
5 BELAlbertin DisseauxBELBelgium07:21:21  +  00:06:02=26,238 
6 FRAVictor CossonFRAFrance07:23:24  +  00:08:05=26,116 
7 ITADante GianelloFRABluets07:24:15  +  00:08:56=26,066 
8 FRAFabien GalateauFRACadets07:24:30  +  00:09:11=26,052 
9 LUXArsène MerschLUXLuxembourg07:25:33  +  00:10:14=25,990 
10 ITASettimo SimoniniITAItaly07:26:50  +  00:11:31=25,916 
11 FRAAuguste MalletFRAFrance07:27:27  +  00:12:08=25,880 
12 FRAGeorges SpeicherFRAFrance07:30:01  +  00:14:42=25,732 
13 CHEPaul EgliCHESwitzerland07:30:17  +  00:14:58=25,717 
14 FRAYvan MarieFRACadets07:30:17  +  00:14:58=25,717 
15 FRAMathias ClemensLUXLuxembourg07:30:25  +  00:15:06=25,710 
16 FRAGeorges NaisseFRAFrance07:30:54  +  00:15:35=25,682 
17 FRAJean FréchautFRAFrance07:32:01  +  00:16:42=25,619 
18 ITAMario ViciniITAItaly07:32:44  +  00:17:25=25,578 
19 ITAGiordano CotturITAItaly07:32:44  +  00:17:25=25,578 
20 FRAEloi TassinFRABluets07:32:44  +  00:17:25=25,578 
21 ESPJulián BerrenderoESPSpain07:33:12  +  00:17:53=25,552 
22 BELEmile Masson jr.BELBelgium07:33:26  +  00:18:07=25,538 
23 FRAJoseph GoutorbeFRABluets07:33:48  +  00:18:29=25,518 
24 ESPMariano CañardoESPSpain07:34:05  +  00:18:46=25,502 
25 DEUHerbert HauswaldDEUGermany07:34:30  +  00:19:11=25,479 
26 ITAPierre SpaperiFRABluets07:35:10  +  00:19:51=25,441 
27 FRAAntonin MagneFRAFrance07:35:40  +  00:20:21=25,413 
28 FRARobert TanneveauFRACadets07:35:43  +  00:20:24=25,411 
29 NLDJanus HellemonsNLDHolland07:35:43  +  00:20:24=25,411 
30 FRARaoul LesueurFRACadets07:36:20  +  00:21:01=25,376 
31 ITANello TroggiITAItaly07:37:51  +  00:22:32=25,292 
32 CHERaymond LouviotFRACadets07:37:57  +  00:22:38=25,287 
33 CHEBruno CariniFRACadets07:38:07  +  00:22:48=25,277 
34 ESPEmiliano AlvarezESPSpain07:38:07  +  00:22:48=25,277 
35 ESPRafael RamosESPSpain07:38:07  +  00:22:48=25,277 
36 ITAAldo BiniITAItaly07:38:26  +  00:23:07=25,260 
37 ITAGlauco ServadeiITAItaly07:38:26  +  00:23:07=25,260 
38 FRAPierre JaminetFRAFrance07:38:48  +  00:23:29=25,240 
39 BELMarcel KintBELBelgium07:38:48  +  00:23:29=25,240 
40 ITAGiuseppe MartanoITAItaly07:38:56  +  00:23:37=25,232 
41 FRAAlbert BourlonFRABluets07:39:18  +  00:23:59=25,212 
42 FRAJean FontenayFRACadets07:39:27  +  00:24:08=25,204 
43 LUXJean MajerusLUXLuxembourg07:40:03  +  00:24:44=25,171 
44 FRAPierre ClemensLUXLuxembourg07:40:20  +  00:25:01=25,156 
45 FRACamille LeroyFRABluets07:40:37  +  00:25:18=25,140 
46 FRAAndré LeducqFRACadets07:40:37  +  00:25:18=25,140 
47 CHEAlbert KnuttiCHESwitzerland07:40:37  +  00:25:18=25,140 
48 ITALuigi IntrozziITAItaly07:41:01  +  00:25:42=25,118 
49 ITAEnrico MolloITAItaly07:41:38  +  00:26:19=25,085 
50 DEUOtto WeckerlingDEUGermany07:41:51  +  00:26:32=25,073 
51 FRARaymond PassatFRACadets07:42:07  +  00:26:48=25,059 
52 LUXFrançois NeuensLUXLuxembourg07:42:25  +  00:27:06=25,042 
53 FRAGaston GrimbertFRABluets07:42:51  +  00:27:32=25,019 
54 LUXChristophe DidierLUXLuxembourg07:42:51  +  00:27:32=25,019 
55 DEUHeinz WenglerDEUGermany07:43:50  +  00:28:31=24,966 
56 FRASauveur DucazeauxFRACadets07:43:50  +  00:28:31=24,966 
57 DEUJosef ArentsDEUGermany07:43:50  +  00:28:31=24,966 
58 DEUPaul LanghoffDEUGermany07:43:50  +  00:28:31=24,966 
59 FRAMarcel LaurentFRAFrance07:44:32  +  00:29:13=24,928 
60 ITAVasco BergamaschiITAItaly07:44:51  +  00:29:32=24,911 
61 CHEEdgar HehlenCHESwitzerland07:44:51  +  00:29:32=24,911 
62 BELJules LowieBELBelgium07:44:57  +  00:29:38=24,906 
63 BELSylvère MaesBELBelgium07:44:57  +  00:29:38=24,906 
64 CHEBruno BesanaCHESwitzerland07:45:07  +  00:29:48=24,897 
65 ESPJacques AlzineESPSpain07:45:18  +  00:29:59=24,887 
66 FRAJules RossiITAItaly07:45:29  +  00:30:10=24,877 
67 BELFrançois NeuvilleBELBelgium07:45:29  +  00:30:10=24,877 
68 FRARobert OubronFRACadets07:45:29  +  00:30:10=24,877 
69 BELRene WalschotBELBelgium07:46:23  +  00:31:04=24,829 
70 FRAAndre LeforgeFRABluets07:46:32  +  00:31:13=24,821 
71 FRAPierre GallienFRAFrance07:46:32  +  00:31:13=24,821 
72 CHETheo PerretCHESwitzerland07:50:19  +  00:35:00=24,622 
73 ITAOreste BernardoniFRABluets07:50:19  +  00:35:00=24,622 
74 FRALucien Le GuevelFRABluets07:50:19  +  00:35:00=24,622 
75 BELÉloi MeulenbergBELBelgium07:54:11  +  00:38:52=24,421 
76 NLDAntoon Van SchendelNLDHolland07:54:11  +  00:38:52=24,421 
77 DEUReinhold WendelDEUGermany07:54:11  +  00:38:52=24,421 
78 BELConstant LauwersBELBelgium07:54:11  +  00:38:52=24,421 
79 NLDTheo MiddelkampNLDHolland07:54:11  +  00:38:52=24,421 
80 DEUFritz SchellerDEUGermany07:56:44  +  00:41:25=24,290 
81 NLDJef DominicusNLDHolland07:57:09  +  00:41:50=24,269 
82 FRALucien LamureFRABluets08:02:33  +  00:47:14=23,998 
83 BELRené PédroliCHESwitzerland08:07:01  +  00:51:42=23,777 
84 BELTheo PirmezBELBelgium08:07:01  +  00:51:42=23,777 
85 DEUKarl HeideDEUGermany08:19:32  +  01:04:13=23,182 

Withdrawls: 5
 
Rider
Team
Reason
26  DEUPaul SeidelDEUGermanyDid not finish
32  DEUHermann SchildDEUGermanyDid not finish
34  DEUWilli OberbeckDEUGermanyDid not finish
61  NLDPiet Van NekNLDHollandDid not finish
63  NLDGerrit SchulteNLDHollandDid not finish

Todays birthdays.

1899  Ardito Bresciani
1908  Renato Scorticati
1927  Marcel Huber
1941  Roger Cooreman
1942  Luis Santamarina
1952  Ferdi Van den Haute
1956  Graziano Salvietti
1961  Massimo Ghirotto
1963  Thierry Marie
1968  Dominik Krieger
1979  Sébastien Joly
1981  Yohann Gène
1982  William Bonnet
1986  Marcel Wyss
1987  Rafael Valls Ferri
1988  Egor Silin